Total_Precipitation_Accumulation
1.38 1.41 1.52 1.62 1.62 1.60 1.59 1.57 1.68 1.73 1.78 1.81 1.91 2.02 2.07 2.20 2.49 2.82 2.73 2.76 2.80 2.79 2.77 2.92 2.98 3.13 3.15 3.02 3.01 3.07 3.27 3.52 3.28 2.89 2.77 2.71 2.55 2.31 2.26 2.13 2.01 1.97 1.90
1.18 1.25 1.33 1.47 1.51 1.52 1.55 1.66 1.77 1.79 1.79 1.73 1.84 1.95 1.91 2.04 2.33 2.63 2.77 2.89 3.01 2.96 2.96 3.10 3.10 3.11 3.06 2.97 3.02 3.03 3.08 3.38 3.31 3.01 2.97 2.89 2.72 2.50 2.45 2.34 2.05 1.87 1.88
1.10 1.15 1.22 1.37 1.55 1.65 1.70 1.75 1.87 1.95 1.93 1.91 1.93 1.90 2.06 2.21 2.29 2.45 2.61 2.66 2.77 2.85 2.98 3.02 2.98 3.08 2.98 2.98 2.86 2.84 2.90 3.08 3.40 3.19 3.07 3.10 3.00 2.74 2.69 2.49 2.29 2.24 1.85
1.09 1.24 1.33 1.54 1.75 1.84 1.86 1.93 1.95 1.99 1.98 2.00 2.02 2.04 2.18 2.28 2.23 2.29 2.43 2.52 2.57 2.63 2.79 2.89 2.94 2.94 2.97 3.12 2.98 2.96 3.12 3.24 3.38 3.32 3.21 3.29 3.31 3.13 2.96 2.76 2.60 2.38 2.06
1.28 1.48 1.68 1.87 1.93 1.98 2.04 2.06 2.12 2.15 2.03 2.12 2.19 2.18 2.21 2.12 2.01 2.26 2.38 2.35 2.54 2.57 2.57 2.56 2.65 2.87 2.93 2.97 2.76 2.94 3.16 3.17 3.14 3.17 3.14 3.28 3.33 3.27 3.02 2.82 2.67 2.60 2.35
1.69 1.84 1.92 1.99 2.04 1.99 2.00 2.02 2.16 2.21 2.26 2.37 2.40 2.42 2.36 2.06 2.23 2.25 2.25 2.37 2.50 2.49 2.49 2.42 2.33 2.35 2.43 2.56 2.59 2.63 2.78 2.91 3.03 3.07 3.05 3.12 3.17 3.17 3.15 3.02 2.87 2.70 2.53
1.94 2.11 2.13 2.10 2.10 2.06 2.10 2.12 2.12 2.25 2.38 2.42 2.41 2.45 2.40 2.38 2.33 2.04 1.96 1.99 2.09 2.12 2.11 2.11 1.90 1.81 2.17 2.22 2.38 2.36 2.25 2.30 2.41 2.67 2.80 2.78 2.98 3.09 3.26 3.11 3.04 2.84 2.56
2.08 2.19 2.26 2.30 2.37 2.43 2.51 2.50 2.55 2.61 2.66 2.61 2.55 2.58 2.63 2.56 2.52 2.15 2.03 1.92 1.92 1.90 1.88 1.85 1.89 1.89 1.94 2.13 2.22 2.17 2.06 2.02 2.09 2.11 2.24 2.49 2.72 3.04 3.22 3.23 3.34 3.13 2.75
2.22 2.38 2.46 2.53 2.59 2.62 2.64 2.77 2.92 3.08 3.15 3.07 3.02 3.06 3.03 3.05 3.03 2.62 2.45 2.19 2.09 1.98 1.99 2.03 2.05 1.90 1.96 2.01 2.06 2.03 1.97 1.98 2.04 2.06 2.05 2.21 2.44 2.65 2.98 3.11 3.17 3.13 2.77
2.34 2.51 2.71 2.87 2.94 2.91 2.98 3.18 3.37 3.54 3.58 3.60 3.61 3.61 3.51 3.45 3.40 2.95 2.76 2.48 2.41 2.34 2.36 2.21 2.10 1.90 1.83 1.79 1.79 1.85 1.77 1.76 1.92 1.99 1.98 2.01 2.13 2.34 2.66 2.72 2.79 2.99 2.77
2.57 2.70 2.87 3.03 3.18 3.22 3.34 3.45 3.64 3.80 3.79 3.74 3.69 3.65 3.51 3.41 3.28 2.93 2.75 2.52 2.54 2.56 2.45 2.32 2.15 1.99 1.76 1.71 1.65 1.65 1.70 1.81 1.91 1.98 2.10 2.23 2.34 2.46 2.48 2.50 2.61 2.72 2.75
2.82 2.98 3.08 3.14 3.00 2.97 3.26 3.49 3.73 3.96 3.92 3.84 3.87 3.71 3.54 3.41 3.13 2.90 2.70 2.54 2.60 2.64 2.56 2.43 2.27 2.13 1.86 1.76 1.60 1.58 1.69 1.67 1.74 1.88 1.97 2.11 2.22 2.35 2.49 2.60 2.65 2.64 2.59
2.89 2.95 3.09 3.12 3.11 3.18 3.41 3.60 3.83 3.94 3.88 3.78 3.75 3.65 3.44 3.23 3.07 2.81 2.56 2.46 2.50 2.45 2.53 2.64 2.43 2.25 2.03 1.86 1.83 1.82 1.71 1.59 1.74 1.88 1.84 1.89 1.99 2.17 2.50 2.75 2.86 2.90 2.71
2.58 2.60 2.60 2.72 2.88 3.13 3.44 3.53 3.61 3.65 3.68 3.66 3.55 3.42 3.36 3.32 3.23 2.94 2.60 2.34 2.31 2.34 2.40 2.51 2.39 2.23 2.01 1.86 1.89 1.84 1.71 1.68 1.79 1.87 1.89 1.92 2.04 2.16 2.36 2.56 2.79 2.88 2.77
2.27 2.28 2.37 2.49 2.68 2.90 3.12 3.27 3.23 3.26 3.48 3.38 3.15 2.97 2.87 2.80 2.86 2.75 2.43 2.26 2.21 2.29 2.37 2.43 2.37 2.25 2.09 1.96 1.89 1.92 1.93 1.88 1.81 1.80 1.96 2.01 2.04 2.02 2.08 2.27 2.56 2.72 2.58
2.02 2.03 2.06 2.13 2.31 2.49 2.64 2.74 2.80 2.59 2.66 2.58 2.41 2.27 2.15 2.12 2.12 1.95 1.78 1.72 1.81 1.99 2.09 2.25 2.30 2.22 2.12 2.06 2.03 2.02 2.00 1.93 1.85 1.83 1.88 1.93 1.95 1.97 2.00 2.11 2.28 2.48 2.46
2.10 2.05 2.05 2.08 2.20 2.24 2.26 2.32 2.37 2.28 2.17 2.09 1.91 1.76 1.68 1.66 1.63 1.60 1.62 1.63 1.71 1.78 1.80 1.98 2.04 2.03 2.04 2.08 2.07 1.99 1.92 1.89 1.93 1.88 1.83 1.87 1.93 1.96 2.02 2.11 2.17 2.30 2.41
2.41 2.35 2.22 2.15 2.16 2.09 2.08 2.16 2.30 2.32 2.19 1.95 1.76 1.56 1.45 1.43 1.46 1.58 1.76 1.72 1.74 1.74 1.71 1.83 1.85 1.87 1.95 2.03 2.06 2.03 1.94 1.93 1.96 1.94 1.91 1.95 2.06 2.11 2.09 2.09 2.15 2.20 2.32
2.30 2.30 2.18 2.16 2.20 2.28 2.25 2.23 2.30 2.31 2.36 2.25 1.96 1.73 1.60 1.54 1.57 1.72 1.79 1.67 1.71 1.71 1.71 1.80 1.86 1.87 1.90 2.00 2.05 2.08 2.07 2.07 2.06 2.07 2.07 2.07 2.17 2.26 2.15 2.07 2.15 2.32 2.37
2.04 2.12 2.04 2.02 2.02 2.18 2.25 2.23 2.25 2.36 2.36 2.24 2.02 1.74 1.51 1.40 1.39 1.61 1.71 1.79 1.87 1.89 1.91 1.91 1.97 2.00 1.99 2.02 2.05 2.05 2.09 2.12 2.10 2.10 2.15 2.19 2.24 2.28 2.19 2.16 2.18 2.31 2.32
1.79 1.79 1.80 1.81 1.88 2.03 2.16 2.19 2.14 2.10 2.14 2.05 1.88 1.62 1.41 1.29 1.36 1.49 1.64 1.75 1.82 1.87 1.91 1.93 1.97 1.92 1.90 1.96 2.00 1.99 2.07 2.12 2.12 2.13 2.21 2.25 2.24 2.24 2.19 2.21 2.23 2.28 2.35
1.74 1.72 1.61 1.64 1.84 1.95 2.02 2.06 1.97 1.90 1.91 1.88 1.75 1.49 1.37 1.28 1.36 1.49 1.65 1.71 1.74 1.76 1.76 1.79 1.79 1.77 1.77 1.80 1.85 1.89 1.94 1.98 1.99 2.01 2.10 2.18 2.20 2.19 2.20 2.25 2.31 2.40 2.41
1.53 1.64 1.65 1.68 1.78 1.79 1.79 1.92 1.96 1.94 1.93 1.87 1.70 1.54 1.44 1.46 1.51 1.60 1.69 1.72 1.68 1.66 1.67 1.69 1.68 1.65 1.58 1.62 1.69 1.76 1.87 1.91 1.88 1.88 1.95 1.98 2.04 2.07 2.08 2.09 2.15 2.29 2.34
1.25 1.42 1.48 1.50 1.55 1.62 1.69 1.81 1.89 1.85 1.84 1.86 1.76 1.64 1.59 1.65 1.69 1.71 1.73 1.69 1.62 1.63 1.64 1.60 1.54 1.49 1.44 1.50 1.54 1.51 1.50 1.53 1.55 1.63 1.72 1.77 1.85 1.94 1.97 2.01 2.13 2.21 2.28
1.19 1.36 1.37 1.33 1.33 1.44 1.57 1.64 1.67 1.62 1.58 1.55 1.49 1.43 1.45 1.54 1.62 1.62 1.60 1.57 1.53 1.51 1.45 1.41 1.40 1.36 1.30 1.25 1.25 1.22 1.30 1.29 1.24 1.28 1.41 1.57 1.66 1.81 1.95 2.03 2.17 2.29 2.30
1.14 1.22 1.25 1.21 1.20 1.31 1.49 1.55 1.56 1.57 1.58 1.53 1.46 1.42 1.44 1.48 1.46 1.46 1.45 1.45 1.43 1.39 1.35 1.29 1.24 1.19 1.17 1.11 1.08 1.13 1.14 1.07 1.06 1.13 1.17 1.30 1.49 1.65 1.76 1.86 1.96 2.15 2.24